Regional Weather Roundup
Issued by NWS

Home | Current Version | Previous Version | Graphics & Text | Print | Product List | Glossary On
Versions: 1 2 3 4 5 6 7 8 9 10 11 12 13 14 15 16 17 18 19 20 21 22 23 24 25 26 27 28 29 30 31 32 33 34 35 36 37 38 39 40 41 42 43 44 45 46 47 48 49 50
000
ASUS43 KDMX 291003
RWRIA

WEATHER ROUNDUP FOR IOWA
NATIONAL WEATHER SERVICE DES MOINES IA
500 AM CDT FRI JUL 29 2016

NOTE: "FAIR" INDICATES FEW OR NO CLOUDS BELOW 12,000 FEET WITH NO
SIGNIFICANT WEATHER AND/OR OBSTRUCTIONS TO VISIBILITY.

* - THESE STATIONS ARE NOT NWS STATIONS...THUS NOT UNDER NWS
QUALITY CONTROL.  THEY ALSO DO NOT REPORT WEATHER SUCH
AS PRECIPITATION OR FOG.

IAZ001>003-012>014-020>022-031>034-043>046-291100-
   NORTHWEST IOWA

CITY           SKY/WX    TMP DP  RH WIND       PRES   REMARKS
CARROLL *      CLEAR     61  61 100 NW6       30.01R
CHEROKEE *     MOCLDY    60  60 100 N3        30.03S
DENISON *      MOCLDY    61  59  94 CALM      30.00S FOG
LE MARS *      PTCLDY    59  57  94 N5        30.04F
SHELDON *      PTCLDY    57  57 100 CALM      30.03F
SIOUX CITY     CLOUDY    65  62  90 W3        30.02F
SPENCER        MOCLDY    61  57  87 N7        30.04F
STORM LAKE *   PTCLDY    61  59  94 N6        30.03S
$$

IAZ055>058-069>071-079>083-090>094-291100-
   SOUTHWEST IOWA

CITY           SKY/WX    TMP DP  RH WIND       PRES   REMARKS
ATLANTIC *     CLOUDY    64  63  94 N6        29.99F
CLARINDA *       N/A     66  66 100 MISG      29.99F
COUNCIL BLFS *   N/A     66  64  94 N5        30.00S
CRESTON *      PTCLDY    64  63  94 NE6       30.00S
HARLAN  *      PTCLDY    63  63 100 N5        30.04S
LAMONI         CLEAR     63  63 100 N6        29.97F
RED OAK *      CLOUDY    66  64  94 CALM      29.99S
SHENANDOAH *   CLOUDY    66  66 100 CALM      29.99S
$$

IAZ047>049-059>061-072>074-084-291100-
   CENTRAL IOWA

CITY           SKY/WX    TMP DP  RH WIND       PRES   REMARKS
AMES           CLOUDY    64  63  96 N8        29.98S
ANKENY *         N/A    N/A N/A N/A MISG        N/A
BOONE *        CLOUDY    63  61  94 N7        29.98S
CHARITON *       N/A    N/A N/A N/A MISG        N/A
DES MOINES     CLOUDY    67  63  87 N6        29.96F
GRINNELL*      CLOUDY    64  63  94 NW5       29.96F
KNOXVILLE *    PTCLDY    63  61  94 NW6       29.95S
MARSHALLTOWN   CLOUDY    65  64  97 N6        29.95F
NEWTON *       PTCLDY    63  63 100 NW7       29.96S
PELLA *        PTCLDY    62  61  97 NW3       29.97R
PERRY *          N/A     62  62  97 N7        29.99S
$$

IAZ004>006-015-016-023>025-035-036-291100-
   NORTH CENTRAL IOWA

CITY           SKY/WX    TMP DP  RH WIND       PRES   REMARKS
ALGONA *       CLOUDY    63  63 100 N6        30.01F
ESTHERVILLE    CLOUDY    60  59  96 N6        30.03F
FORT DODGE *   PTCLDY    61  59  94 CALM      30.00F
MASON CITY     CLOUDY    64  60  87 N10       30.01F
FOREST CITY *  CLOUDY    63  61  94 N7        30.01S
IOWA FALLS *   CLOUDY    65  62  90 N7        29.99S
$$

IAZ007>011-017>019-026>030-037>042-050>054-066-291100-
   NORTHEAST IOWA

CITY           SKY/WX    TMP DP  RH WIND       PRES   REMARKS
CEDAR RAPIDS   CLOUDY    66  66 100 NW8       29.92F
CHARLES CITY * CLOUDY    63  63 100 N6        29.99S FOG
CLINTON *      CLOUDY    69  68  96 E5        29.92S FOG
DECORAH *      DRIZZLE   63  63 100 NE5       29.97S
DUBUQUE        CLOUDY    67  64  90 NE8       29.95S
MONTICELLO *   CLOUDY    70  68  94 CALM      29.92F
OELWEIN *      CLOUDY    66  66 100 NE8       29.96S
WATERLOO       CLOUDY    65  63  93 NW6       29.94F
$$

IAZ064-065-067-068-078-291100-
   EAST CENTRAL IOWA

CITY           SKY/WX    TMP DP  RH WIND       PRES   REMARKS
DAVENPORT      CLOUDY    69  68  96 CALM      29.91F FOG
IOWA CITY      CLOUDY    68  65  90 W7        29.94S
MT. PLEASANT * MOCLDY    67  67 100 CALM      29.94R
MUSCATINE *    CLOUDY    68  66  94 NW6       29.92S
QUAD CITIES    CLOUDY    71  67  87 N3        29.90F
$$

IAZ062-063-075>077-085>089-095>099-291100-
   SOUTHEAST IOWA

CITY           SKY/WX    TMP DP  RH WIND       PRES   REMARKS
BURLINGTON     PTCLDY    66  66 100 N7        29.92S
FAIRFIELD *    PTCLDY    63  61  94 NW6       29.93F
KEOKUK *       CLEAR     66  64  94 N3        29.92S
CENTERVILLE *    N/A     63  63 100 CALM      29.97S
OTTUMWA        CLEAR     62  60  93 NW9       29.94F
WASHINGTON *   CLOUDY    64  64 100 NW7       29.94F
$$

ABBREVIATIONS USED IN REMARKS
   TC - TEMPERATURES IN CELSIUS
  WCI - WIND CHILL INDEX
   HX - HEAT INDEX
  VSB - VISIBILITY
$$




USA.gov is the U.S. government's official web portal to all federal, state and local government web resources and services.